TimeCST,TemperatureF,Dew PointF,Humidity,Sea Level PressureIn,VisibilityMPH,Wind Direction,Wind SpeedMPH,Gust SpeedMPH,PrecipitationIn,Events,Conditions,WindDirDegrees,DateUTC
12:32 AM,19.4,15.8,86,30.01,1.5,North,21.9,27.6,0.01,Snow,Light Snow,10,2014-01-05 06:32:00
12:42 AM,19.4,15.8,86,30.01,2.5,North,23.0,32.2,0.01,Snow,Light Snow,10,2014-01-05 06:42:00
12:54 AM,19.0,15.1,85,30.03,1.8,North,19.6,27.6,0.01,Snow,Light Snow,10,2014-01-05 06:54:00
1:27 AM,17.6,14.0,86,30.02,1.0,North,20.7,31.1,0.01,Snow,Light Snow,360,2014-01-05 07:27:00
1:54 AM,18.0,15.1,88,30.05,1.0,North,15.0,25.3,0.01,Snow,Light Snow,10,2014-01-05 07:54:00
2:19 AM,17.6,14.0,86,30.03,1.8,North,21.9,26.5,0.00,Snow,Light Snow,360,2014-01-05 08:19:00
2:26 AM,17.6,14.0,86,30.02,2.5,North,19.6,26.5,0.00,Snow,Light Snow,10,2014-01-05 08:26:00
2:30 AM,17.6,14.0,86,30.03,3.0,North,20.7,29.9,0.01,Snow,Light Snow,10,2014-01-05 08:30:00
2:54 AM,18.0,14.0,84,30.09,6.0,North,23.0,29.9,0.01,Snow,Light Snow,10,2014-01-05 08:54:00
3:08 AM,17.6,14.0,86,30.05,2.5,North,21.9,27.6,0.00,Snow,Light Snow,360,2014-01-05 09:08:00
3:19 AM,17.6,14.0,86,30.05,1.2,North,21.9,29.9,0.00,Snow,Light Snow,360,2014-01-05 09:19:00
3:54 AM,18.0,14.0,84,30.10,1.2,North,19.6,24.2,0.00,Snow,Light Snow,360,2014-01-05 09:54:00
4:31 AM,17.6,14.0,86,30.06,2.0,North,20.7,27.6,0.00,Snow,Light Snow,360,2014-01-05 10:31:00
4:54 AM,17.1,12.9,84,30.11,1.8,North,21.9,29.9,0.00,Snow,Light Snow,360,2014-01-05 10:54:00
5:26 AM,17.6,12.2,79,30.08,2.0,NNW,20.7,-,0.00,Snow,Light Snow,340,2014-01-05 11:26:00
5:42 AM,15.8,10.4,79,30.10,3.0,North,23.0,28.8,0.00,Snow,Light Snow,350,2014-01-05 11:42:00
5:54 AM,15.1,10.9,84,30.15,3.0,North,23.0,31.1,0.00,Snow,Light Snow,350,2014-01-05 11:54:00
6:07 AM,15.8,10.4,79,30.11,2.5,North,19.6,28.8,0.00,Snow,Light Snow,350,2014-01-05 12:07:00
6:54 AM,14.0,10.0,84,30.18,3.0,North,21.9,31.1,0.00,Snow,Light Snow,360,2014-01-05 12:54:00
7:03 AM,14.0,10.4,86,30.14,4.0,North,23.0,32.2,0.00,Snow,Light Snow,350,2014-01-05 13:03:00
7:54 AM,14.0,9.0,80,30.22,4.0,North,20.7,28.8,0.00,Snow,Light Snow,350,2014-01-05 13:54:00
8:01 AM,14.0,8.6,79,30.17,4.0,North,18.4,28.8,0.00,Snow,Light Snow,350,2014-01-05 14:01:00
8:54 AM,12.9,8.1,81,30.27,4.0,North,19.6,29.9,0.00,Snow,Light Snow,350,2014-01-05 14:54:00
9:07 AM,12.2,8.6,85,30.23,3.0,North,20.7,-,0.00,Snow,Light Snow,360,2014-01-05 15:07:00
9:14 AM,12.2,8.6,85,30.23,2.0,NNW,23.0,28.8,0.00,Snow,Light Snow,340,2014-01-05 15:14:00
9:24 AM,12.2,8.6,85,30.24,1.8,North,23.0,-,0.00,Snow,Light Snow,350,2014-01-05 15:24:00
9:43 AM,12.2,8.6,85,30.25,2.5,North,20.7,29.9,0.00,Snow,Light Snow,350,2014-01-05 15:43:00
9:51 AM,12.2,6.8,79,30.26,4.0,North,24.2,32.2,0.00,Snow,Light Snow,350,2014-01-05 15:51:00
9:54 AM,12.9,7.0,77,30.32,4.0,North,23.0,32.2,0.00,Snow,Light Snow,350,2014-01-05 15:54:00
10:28 AM,14.0,6.8,73,30.27,7.0,North,21.9,28.8,0.00,Snow,Light Snow,350,2014-01-05 16:28:00
10:54 AM,15.1,3.0,59,30.34,10.0,North,24.2,31.1,0.00,,Scattered Clouds,360,2014-01-05 16:54:00
11:54 AM,15.1,1.0,54,30.35,10.0,North,26.5,31.1,N/A,,Mostly Cloudy,360,2014-01-05 17:54:00
12:54 PM,16.0,1.9,54,30.35,10.0,North,16.1,28.8,N/A,,Overcast,350,2014-01-05 18:54:00
1:54 PM,15.1,1.0,54,30.38,10.0,North,23.0,31.1,N/A,,Partly Cloudy,350,2014-01-05 19:54:00
2:54 PM,15.1,1.0,54,30.42,10.0,North,17.3,29.9,N/A,,Clear,350,2014-01-05 20:54:00
3:54 PM,14.0,-0.0,54,30.46,10.0,North,15.0,-,N/A,,Clear,360,2014-01-05 21:54:00
4:54 PM,12.9,-0.0,56,30.50,10.0,North,16.1,23.0,N/A,,Mostly Cloudy,360,2014-01-05 22:54:00
5:54 PM,12.9,1.0,59,30.54,10.0,North,17.3,23.0,N/A,,Overcast,350,2014-01-05 23:54:00
6:54 PM,12.0,-0.9,56,30.57,10.0,North,17.3,24.2,N/A,,Overcast,360,2014-01-06 00:54:00
7:54 PM,10.0,-2.0,58,30.60,10.0,North,12.7,-,N/A,,Scattered Clouds,360,2014-01-06 01:54:00
8:54 PM,5.0,-4.0,66,30.63,10.0,North,5.8,-,N/A,,Clear,350,2014-01-06 02:54:00
9:54 PM,1.9,-5.1,72,30.63,10.0,NNW,5.8,-,N/A,,Clear,330,2014-01-06 03:54:00
10:54 PM,1.9,-5.1,72,30.64,10.0,NW,3.5,-,N/A,,Clear,320,2014-01-06 04:54:00
11:54 PM,1.9,-4.0,76,30.65,10.0,North,4.6,-,N/A,,Clear,350,2014-01-06 05:54:00